Regional Weather Roundup
Issued by NWS Huntsville, AL

Home | Current Version | Previous Version | Text Only | Print | Product List | Glossary On
Versions: 1 2 3 4 5 6 7 8 9 10 11 12 13 14 15 16 17 18 19 20 21 22 23 24 25 26 27 28 29 30 31 32 33 34 35 36 37 38 39 40 41 42 43 44 45 46 47 48 49 50
000
ASUS44 KHUN 211510
RWRHUN

WEATHER ROUNDUP FOR THE TENNESSEE VALLEY
NATIONAL WEATHER SERVICE HUNTSVILLE AL
900 AM CST TUE FEB 21 2017

ALZ001>004-211600-
NORTHWEST ALABAMA

CITY           SKY/WX    TMP DP  RH WIND       PRES   REMARKS
SHOALS AIRPORT CLOUDY    64  53  67 SE13      29.95F
$$

ALZ005>007-016-211600-
NORTH CENTRAL ALABAMA

CITY           SKY/WX    TMP DP  RH WIND       PRES   REMARKS
DECATUR AP     CLOUDY    62  55  77 SE14      30.01F
HUNTSVILLE AP  CLOUDY    62  55  77 SE7       30.02S
MERIDIANVILLE  LGT RAIN  61  50  67 S10G16    30.03R
REDSTONE ARSN  CLOUDY    61  54  77 S7        30.01F
VINEMONT AP    FAIR      60  52  74 S8        30.05S
$$

ALZ008>010-211600-
NORTHEAST ALABAMA

CITY           SKY/WX    TMP DP  RH WIND       PRES   REMARKS
ALBERTVILLE    CLOUDY    57  57 100 SE5       30.05S
FORT PAYNE     CLOUDY    61  41  48 SE6       30.07R
SCOTTSBORO AP  CLOUDY    63  50  63 S8        30.06S
SCOTTSBORO HCN   N/A     63 N/A N/A MISG        N/A
VALLEY HEAD      N/A     61 N/A N/A MISG        N/A
$$

TNZ076-096-097-211600-
SOUTHEASTERN MIDDLE TENNESSEE

CITY           SKY/WX    TMP DP  RH WIND       PRES   REMARKS
TULLAHOMA      PTSUNNY   64  48  55 S16       30.02S
$$

...SURROUNDING SITES...

CITY           SKY/WX    TMP DP  RH WIND       PRES   REMARKS
ATLANTA        CLOUDY    59  49  69 SE10      30.11S
ANNISTON       CLOUDY    63  53  70 S7        30.08R
BIRMINGHAM     CLOUDY    61  55  81 SE9       30.06F
CHATTANOOGA    PTSUNNY   61  47  59 CALM      30.07F
DALTON         MOSUNNY   63  46  55 S5        30.09S
GADSDEN        NOT AVBL
GOLDEN TRNGL   CLOUDY    59  54  82 SE13      29.91R
HALEYVILLE     CLOUDY    59  54  83 SE15G23   29.99S
JACKSON TN     MOSUNNY   61  56  83 SE9G18    29.85F
MEMPHIS        CLOUDY    61  59  93 S12       29.88R
NASHVILLE      CLOUDY    63  48  58 SE8       29.99F
OXFORD MS      CLOUDY    57  57 100 S10G16    29.93R
ROME           CLOUDY    63  46  54 S7        30.07F
SAVANNAH       SUNNY     61  55  82 SE14      29.88F
TUPELO         CLOUDY    59  56  89 SE7       29.92R
TUSCALOOSA     LGT RAIN  60  57  89 S6        30.02R
$$

...GULF COAST WEATHER...

CITY           SKY/WX    TMP DP  RH WIND       PRES   REMARKS
GULFPORT       LGT RAIN  63  62  97 CALM      29.97R
PASCAGOULA     LGT RAIN  62  59  90 W5        29.97R
MOBILE         CLOUDY    62  60  93 E8        29.97R FOG
GULF SHORES    RAIN      61  61 100 NE5       29.99F
PENSACOLA      LGT RAIN  64  61  90 N5        29.98S FOG
DESTIN         LGT RAIN  69  67  93 SE10G21   29.99R FOG
PANAMA CITY    MOSUNNY   67  62  83 SE8       30.02F
APPALACHICOLA  CLOUDY    69  66  90 SE12      30.04R
$$




USA.gov is the U.S. government's official web portal to all federal, state and local government web resources and services.